Find Starlink 34898

NORAD ID: 65895 Int'l Des: 2025-224 Owner: SPXS Country: US Constellation: starlink operational
LEOCIRCULAR

Live-Position

3D-Globus wird geladen...

Über Starlink 34898

Beschreibung wird geladen...

Nächste Überflüge

Passes for default location (London). Set your location on the main map for personalized predictions.

Höhenverlauf

Loading altitude history...

Zweizeiliger Elementsatz

1 65895U 25224P 26105.52120950 .00009773 00000-0 34163-3 0 9992
2 65895 53.1615 200.2412 0001442 101.9084 258.2079 15.30203956 30517
Epoch: 15. Apr. 2026 • Age: 16 hours

Aktueller Status

Höhe 478.8 km
Geschwindigkeit 7.63 km/s
Subsatellitenpunkt -11.78°S, 77.85°W
Startdatum 7. Okt. 2025
Alter 0.5 years
Typ internet

Technische Details

Klassifizierung Payload
Masse 575.00 kg
Trockenmasse 530.00 kg
Gesamtmasse 575.00 kg
Länge 0.30 m
Durchmesser 4.10 m
Spannweite 29.00 m
Form Box + pan
Hersteller SPXS
Bus-Typ Starlink V2MO
Phasenstatus In Orbit
Besitzer/Staat SPXS/US

Most Searched